Hourly Data Report for October 02, 2015

All times are specified in Local Standard Time (LST). Add 1 hour to adjust for Daylight Saving Time where and when it is observed.

KUGAARUK CLIMATE
NUNAVUT

68°32'15.060" N
89°47'47.020" W
15.80 m
2303094
71407
NBB

Download Data

Hourly Data (October 2015)
Hourly Data Report for October 2, 2015
Temp Definition
°C
Dew Point Temp Definition
°C
Rel Hum Definition
%
Wind Dir Definition
10's deg

Wind Spd Definition
km/h
Visibility Definition
km
Stn Press Definition
kPa
Hmdx Definition


Wind Chill Definition


Weather Definition


TIME
00:00 0.3 -4.5 70 28 43   102.17     LegendNANA
01:00 0.3 -4.0 73 28 36   102.29     LegendNANA
02:00 -0.3 -4.1 75 28 29   102.46   -7 LegendNANA
03:00 -0.5 -4.2 76 27 34   102.53   -8 LegendNANA
04:00 -0.6 -4.1 77 27 35   102.53   -8 LegendNANA
05:00 -1.0 -3.7 82 24 33   102.60   -8 LegendNANA
06:00 -0.6 -3.4 81 25 37   102.58   -8 LegendNANA
07:00 -0.3 -3.5 79 25 31   102.64   -7 LegendNANA
08:00 -0.4 -3.4 80 23 24   102.71   -6 LegendNANA
09:00 0.3 -3.2 77 23 29   102.74     LegendNANA
10:00 0.6 -2.2 82 24 28   102.72     LegendNANA
11:00 0.7 -1.8 83 25 29   102.71     LegendNANA
12:00 0.8 -1.9 82 26 25   102.71     LegendNANA
13:00 0.9 -2.2 80 26 25   102.73     LegendNANA
14:00 0.6 -2.5 80 27 20   102.77     LegendNANA
15:00 0.5 -2.2 82 24 22   102.71     LegendNANA
16:00 0.5 -3.2 76 27 15   102.75     LegendNANA
17:00 0.2 -2.7 81 26 13   102.74     LegendNANA
18:00 0.1 -2.6 82 23 17   102.76     LegendNANA
19:00 0.1 -2.7 82 26 20   102.69     LegendNANA
20:00 -0.2 -2.6 84 25 16   102.67   -5 LegendNANA
21:00 -0.6 -2.8 85 23 11   102.70   -4 LegendNANA
22:00 -0.5 -2.3 88 25 10   102.69   -4 LegendNANA
23:00 -1.2 -2.5 91 23 8   102.67   -4 LegendNANA

Notes on Data Quality.

Legend

  • E = Estimated
  • M = Missing
  • NA = Not Available
  • ‡ = Partner data that is not subject to review by the National Climate Archives
Date modified: